This demonstration page uses our WeatherBlox Daily Observations layout. Learn more.

Left ArrowRight Arrow

44.8408, -93.29828

Hourly Observations for June 15, 2017

Temp ( °F °C ) Dew Point ( °F °C ) Humidity (%) Winds ( mph kmh ) Pressure ( in mb ) Visibility ( mi km ) Precip ( " mm )
12:53 am 00:53 Clear 72 22.2 56 13.3 57 57 SW 5 7 29.74 1007 10 16 0.00 0.00
1:53 am 01:53 Clear 70 21.1 57 13.9 64 64 S 3 6 29.74 1007 10 16 0.00 0.00
2:53 am 02:53 Clear 70 21.1 56 13.3 61 61 SW 5 7 29.73 1007 10 16 0.00 0.00
3:53 am 03:53 Clear 69 20.6 56 13.3 63 63 SW 6 9 29.73 1007 10 16 0.00 0.00
4:53 am 04:53 Mostly Clear 67 19.4 56 13.3 68 68 SW 6 9 29.75 1007 10 16 0.00 0.00
5:53 am 05:53 Mostly Sunny 68 20 56 13.3 65 65 WSW 10 17 29.75 1008 10 16 0.00 0.00
6:53 am 06:53 Mostly Sunny 69 20.6 57 13.9 66 66 WSW 9 15 29.76 1008 10 16 0.00 0.00
7:53 am 07:53 Mostly Sunny 71 21.7 56 13.3 59 59 W 12 19 29.77 1008 10 16 0.00 0.00
8:53 am 08:53 Sunny 74 23.3 56 13.3 54 54 W 10 17 29.79 1009 10 16 0.00 0.00
9:53 am 09:53 Sunny 77 25 54 12.2 45 45 W 18 30 29.79 1009 10 16 0.00 0.00
10:53 am 10:53 Sunny 78 25.6 53 11.7 42 42 W 20 31 29.80 1009 10 16 0.00 0.00
11:53 am 11:53 Mostly Sunny 80 26.7 52 11.1 38 38 W 21 33 29.79 1009 10 16 0.00 0.00
12:53 pm 12:53 Mostly Sunny 81 27.2 52 11.1 37 37 WNW 14 22 29.79 1009 10 16 0.00 0.00
1:53 pm 13:53 Mostly Sunny 83 28.3 51 10.6 33 33 WNW 18 30 29.78 1009 10 16 0.00 0.00
2:53 pm 14:53 Partly Cloudy 84 28.9 51 10.6 32 32 W 10 17 29.78 1009 10 16 0.00 0.00
3:53 pm 15:53 Partly Cloudy 86 30 50 10 29 29 W 18 30 29.76 1008 10 16 0.00 0.00
4:53 pm 16:53 Partly Cloudy 87 30.6 50 10 28 28 WNW 20 31 29.74 1007 10 16 0.00 0.00
5:53 pm 17:53 Partly Cloudy 87 30.6 48 8.9 26 26 W 17 28 29.73 1007 10 16 0.00 0.00
6:53 pm 18:53 Partly Cloudy 86 30 48 8.9 27 27 W 12 19 29.72 1006 10 16 0.00 0.00
7:53 pm 19:53 Partly Cloudy 83 28.3 50 10 32 32 NW 8 13 29.71 1006 10 16 0.00 0.00
8:53 pm 20:53 Mostly Sunny 81 27.2 51 10.6 35 35 NNW 6 9 29.71 1006 10 16 0.00 0.00
9:53 pm 21:53 Mostly Clear 77 25 53 11.7 43 43 NW 3 6 29.73 1007 10 16 0.00 0.00
10:53 pm 22:53 Clear 76 24.4 53 11.7 45 45 NW 3 6 29.73 1007 10 16 0.00 0.00
11:53 pm 23:53 Clear 73 22.8 57 13.9 57 57 S 3 6 29.74 1007 10 16 0.00 0.00

Powered by AerisWeather